Time_in_sec,gx,gy,gz
1314362757.32260323,0.14505466,0.02247925,-0.98916825
1314362757.36859751,0.14502158,0.02229629,-0.98917724
1314362757.42144108,0.14500554,0.02233600,-0.98917870
1314362757.46924806,0.14493534,0.02222207,-0.98919155
1314362757.52049923,0.14493380,0.02213173,-0.98919380
1314362757.56950831,0.14493363,0.02231610,-0.98918969
1314362757.62057066,0.14476790,0.02241459,-0.98921173
1314362757.67351031,0.14463587,0.02239012,-0.98923159
1314362757.70950699,0.14467715,0.02205185,-0.98923316
1314362757.76952791,0.14474326,0.02219948,-0.98922018
1314362757.82295752,0.14473562,0.02196777,-0.98922647
1314362757.86951804,0.14467849,0.02254275,-0.98922190
1314362757.92054129,0.14498012,0.02244295,-0.98918000
1314362757.96949840,0.14503105,0.02260371,-0.98916888
1314362758.02060390,0.14503638,0.02271021,-0.98916566
1314362758.06848955,0.14476322,0.02268180,-0.98920632
1314362758.10950994,0.14482870,0.02285480,-0.98919275
1314362758.16852927,0.14489096,0.02286011,-0.98918351
1314362758.22147679,0.14478718,0.02264959,-0.98920355
1314362758.26952171,0.14492390,0.02277409,-0.98918067
1314362758.32054138,0.14501131,0.02246585,-0.98917491
1314362758.37198520,0.14485992,0.02256583,-0.98919482
1314362758.42053008,0.14454977,0.02252000,-0.98924123
1314362758.47350788,0.14474350,0.02225722,-0.98921885
1314362758.52145672,0.14481975,0.02243380,-0.98920370
1314362758.56951523,0.14458919,0.02225749,-0.98924141
1314362758.62147474,0.14454255,0.02236536,-0.98924579
1314362758.66949391,0.14455929,0.02227391,-0.98924541
1314362758.72149301,0.14448888,0.02251609,-0.98925022
1314362758.76956344,0.14436788,0.02220869,-0.98927483
1314362758.82447934,0.14450940,0.02209054,-0.98925681
1314362758.86853528,0.14430658,0.02220192,-0.98928393
1314362758.92122388,0.14441361,0.02235141,-0.98926494
1314362758.96852970,0.14435473,0.02252552,-0.98926959
1314362759.02148986,0.14452703,0.02260338,-0.98924265
1314362759.06847334,0.14433196,0.02257475,-0.98927179
1314362759.11935616,0.14442635,0.02272224,-0.98925463
1314362759.16952896,0.14417776,0.02252347,-0.98929544
1314362759.21971917,0.14426398,0.02243110,-0.98928497
1314362759.26860332,0.14417891,0.02268795,-0.98929151
1314362759.32148433,0.14406002,0.02269249,-0.98930873
1314362759.36851215,0.14415764,0.02256207,-0.98929749
1314362759.42147613,0.14415611,0.02233209,-0.98930293
1314362759.46916604,0.14437770,0.02232091,-0.98927087
1314362759.52053237,0.14449083,0.02251012,-0.98925007
1314362759.56146336,0.14429116,0.02244357,-0.98928072
1314362759.62093353,0.14422024,0.02256373,-0.98928833
1314362759.66859412,0.14415616,0.02284137,-0.98929130
1314362759.72151017,0.14393206,0.02288610,-0.98932289
1314362759.76849222,0.14387167,0.02278978,-0.98933390
1314362759.82147384,0.14390721,0.02271027,-0.98933056
1314362759.86952806,0.14403442,0.02268676,-0.98931259
1314362759.92165256,0.14383247,0.02294338,-0.98933605
1314362759.96951437,0.14377604,0.02287367,-0.98934587
1314362760.02061033,0.14379131,0.02306852,-0.98933912
1314362760.06852555,0.14388932,0.02300657,-0.98932632
1314362760.10948753,0.14372184,0.02269240,-0.98935792
1314362760.16853428,0.14364664,0.02273022,-0.98936797
1314362760.22146511,0.14350880,0.02283041,-0.98938567
1314362760.26851344,0.14357480,0.02286273,-0.98937534
1314362760.31832099,0.14340065,0.02285550,-0.98940077
1314362760.37166142,0.14332158,0.02294254,-0.98941021
1314362760.42074180,0.14327612,0.02290505,-0.98941766
1314362760.46860003,0.14327388,0.02278058,-0.98942086
1314362760.52146745,0.14329410,0.02279452,-0.98941761
1314362760.56859446,0.14346258,0.02290716,-0.98939060
1314362760.62147593,0.14368720,0.02303222,-0.98935510
1314362760.66861892,0.14384147,0.02320880,-0.98932855
1314362760.72053385,0.14408193,0.02332834,-0.98929075
1314362760.76951718,0.14404092,0.02335481,-0.98929610
1314362760.82128215,0.14406228,0.02354664,-0.98928844
1314362760.86946368,0.14419160,0.02349109,-0.98927092
1314362760.92150974,0.14428746,0.02354490,-0.98925566
1314362760.96954298,0.14432473,0.02339322,-0.98925382
1314362761.02144766,0.14428065,0.02329336,-0.98926261
1314362761.06848431,0.14450012,0.02308621,-0.98923543
1314362761.12151551,0.14467477,0.02280804,-0.98921636
1314362761.17350626,0.14475141,0.02297689,-0.98920124
1314362761.22127724,0.14466376,0.02277423,-0.98921875
1314362761.26948643,0.14466672,0.02270385,-0.98921993
1314362761.30947375,0.14468414,0.02283162,-0.98921444
1314362761.36860585,0.14474546,0.02280895,-0.98920600
1314362761.42146420,0.14474434,0.02250078,-0.98921322
1314362761.46949553,0.14506030,0.02262874,-0.98916401
1314362761.52123547,0.14534255,0.02274597,-0.98911989
1314362761.56950355,0.14532185,0.02285948,-0.98912032
1314362761.62122893,0.14552031,0.02283937,-0.98909160
1314362761.66862416,0.14547460,0.02279512,-0.98909935
1314362761.70988178,0.14559554,0.02268060,-0.98908419
1314362761.76950026,0.14559055,0.02273812,-0.98908360
1314362761.82147574,0.14578201,0.02229770,-0.98906543
1314362761.86892700,0.14556827,0.02236214,-0.98909545
1314362761.92068458,0.14565477,0.02256101,-0.98907820
1314362761.96150541,0.14569363,0.02231520,-0.98907805
1314362762.02071500,0.14576203,0.02239897,-0.98906608
1314362762.06945515,0.14574211,0.02233222,-0.98907053
1314362762.12090373,0.14590932,0.02229599,-0.98904669
1314362762.16961813,0.14615047,0.02225473,-0.98901202
1314362762.22144604,0.14614768,0.02228112,-0.98901183
1314362762.26923871,0.14606341,0.02236338,-0.98902243
1314362762.32150888,0.14620198,0.02222261,-0.98900512
1314362762.36947775,0.14634834,0.02234009,-0.98898083
1314362762.42118335,0.14642420,0.02215755,-0.98897371
1314362762.46860576,0.14650213,0.02242975,-0.98895603
1314362762.52047706,0.14633957,0.02247475,-0.98897908
1314362762.56867242,0.14638824,0.02242092,-0.98897310
1314362762.62146449,0.14634580,0.02255114,-0.98897642
1314362762.66962123,0.14636435,0.02231896,-0.98897894
1314362762.72053266,0.14635762,0.02248429,-0.98897619
1314362762.76950908,0.14622008,0.02231552,-0.98900036
1314362762.82047677,0.14611013,0.02251196,-0.98901215
1314362762.86859083,0.14628300,0.02269774,-0.98898235
1314362762.90946937,0.14617609,0.02269499,-0.98899823
1314362762.96961617,0.14600886,0.02285341,-0.98901928
1314362763.02147698,0.14630473,0.02286160,-0.98897537
1314362763.06849027,0.14628724,0.02296789,-0.98897549
1314362763.12050748,0.14630148,0.02296886,-0.98897336
1314362763.17572808,0.14599817,0.02292573,-0.98901918
1314362763.22119927,0.14611951,0.02317103,-0.98899555
1314362763.26853490,0.14608290,0.02317224,-0.98900093
1314362763.32151055,0.14620268,0.02313943,-0.98898400
1314362763.36953282,0.14646924,0.02320586,-0.98894300
1314362763.42144799,0.14635834,0.02325209,-0.98895833
1314362763.46853280,0.14634850,0.02327307,-0.98895929
1314362763.52060938,0.14665771,0.02323416,-0.98891440
1314362763.56947684,0.14649542,0.02300631,-0.98894378
1314362763.61889529,0.14666932,0.02283739,-0.98892192
1314362763.66861939,0.14681469,0.02255721,-0.98890678
1314362763.72144890,0.14690574,0.02268245,-0.98889039
1314362763.76906419,0.14694383,0.02269272,-0.98888450
1314362763.82146883,0.14687369,0.02298312,-0.98888821
1314362763.86846566,0.14684222,0.02282048,-0.98889665
1314362763.92048168,0.14686451,0.02289368,-0.98889165
1314362763.96954799,0.14674150,0.02283353,-0.98891130
1314362764.02047992,0.14671371,0.02274039,-0.98891757
1314362764.06845784,0.14643806,0.02297337,-0.98895304
1314362764.12104630,0.14642108,0.02313589,-0.98895177
1314362764.16946340,0.14634754,0.02308294,-0.98896389
1314362764.22162127,0.14638598,0.02321597,-0.98895509
1314362764.26860428,0.14627010,0.02319921,-0.98897263
1314362764.32049608,0.14635666,0.02326646,-0.98895824
1314362764.36949635,0.14639365,0.02313157,-0.98895593
1314362764.42149210,0.14651361,0.02331225,-0.98893392
1314362764.46947408,0.14637753,0.02328764,-0.98895465
1314362764.52111959,0.14636409,0.02332658,-0.98895572
1314362764.56961846,0.14631092,0.02345772,-0.98896049
1314362764.62144947,0.14605069,0.02349050,-0.98899818
1314362764.66904020,0.14603662,0.02358942,-0.98899790
1314362764.72151780,0.14606651,0.02338934,-0.98899824
1314362764.77348185,0.14629561,0.02342789,-0.98896346
1314362764.82161307,0.14658598,0.02368575,-0.98891432
1314362764.86963248,0.14638777,0.02362347,-0.98894517
1314362764.92152119,0.14618833,0.02368491,-0.98897320
1314362764.96962428,0.14598061,0.02358887,-0.98900618
1314362765.02146482,0.14601705,0.02352925,-0.98900222
1314362765.06902480,0.14610527,0.02340995,-0.98899202
1314362765.12161326,0.14616814,0.02354927,-0.98897943
1314362765.17140007,0.14632533,0.02342686,-0.98895909
1314362765.22051859,0.14632001,0.02324980,-0.98896405
1314362765.27759838,0.14630536,0.02351193,-0.98896002
1314362765.32100940,0.14627819,0.02328881,-0.98896932
1314362765.36861348,0.14637693,0.02316220,-0.98895769
1314362765.42150116,0.14632767,0.02313022,-0.98896572
1314362765.46110058,0.14624107,0.02296022,-0.98898250
1314362765.52073717,0.14627385,0.02307535,-0.98897497
1314362765.56947970,0.14656126,0.02287152,-0.98893715
1314362765.62147999,0.14663447,0.02292364,-0.98892509
1314362765.66897511,0.14680004,0.02286368,-0.98890192
1314362765.70905805,0.14661280,0.02280255,-0.98893111
1314362765.76961350,0.14665866,0.02286045,-0.98892297
1314362765.82146764,0.14670816,0.02294752,-0.98891361
1314362765.86861205,0.14659729,0.02270331,-0.98893569
1314362765.92115903,0.14636470,0.02283874,-0.98896702
1314362765.96946359,0.14628270,0.02278500,-0.98898039
1314362766.02059054,0.14615030,0.02279691,-0.98899969
1314362766.06975484,0.14599090,0.02262838,-0.98902711
1314362766.12046885,0.14598404,0.02286547,-0.98902266
1314362766.16950417,0.14610118,0.02278993,-0.98900711
1314362766.22143698,0.14596620,0.02280633,-0.98902666
1314362766.26850414,0.14589595,0.02298865,-0.98903281
1314362766.32164860,0.14564982,0.02278822,-0.98907372
1314362766.36950898,0.14530067,0.02288367,-0.98912287
1314362766.42161179,0.14534315,0.02288849,-0.98911652
1314362766.46909499,0.14517929,0.02303819,-0.98913711
1314362766.52097654,0.14541756,0.02328491,-0.98909633
1314362766.56861019,0.14534135,0.02315456,-0.98911059
1314362766.62145233,0.14530125,0.02327426,-0.98911367
1314362766.66898036,0.14544570,0.02307992,-0.98909699
1314362766.72060609,0.14534215,0.02308168,-0.98911218
1314362766.76978731,0.14505077,0.02289893,-0.98915920
1314362766.82162166,0.14500989,0.02273036,-0.98916908
1314362766.86848211,0.14497890,0.02273103,-0.98917360
1314362766.92054224,0.14497719,0.02276860,-0.98917299
1314362766.96962643,0.14526736,0.02282437,-0.98912913
1314362767.02144861,0.14519088,0.02291747,-0.98913821
1314362767.06869340,0.14495146,0.02273368,-0.98917756
1314362767.12061763,0.14474609,0.02287411,-0.98920440
1314362767.16950393,0.14468990,0.02287829,-0.98921252
1314362767.22064018,0.14446860,0.02292641,-0.98924375
1314362767.27351809,0.14458182,0.02304350,-0.98922449
1314362767.32049656,0.14449424,0.02304564,-0.98923724
1314362767.37123489,0.14446384,0.02349444,-0.98923112
1314362767.42146349,0.14418143,0.02337673,-0.98927511
1314362767.46091938,0.14399965,0.02354461,-0.98929761
1314362767.52069283,0.14388791,0.02344877,-0.98931614
1314362767.56947803,0.14397262,0.02335252,-0.98930609
1314362767.62061787,0.14393200,0.02342340,-0.98931033
1314362767.67760348,0.14393299,0.02327132,-0.98931377
1314362767.70949554,0.14393707,0.02340109,-0.98931012
1314362767.76961851,0.14399575,0.02338785,-0.98930189
1314362767.82146978,0.14397378,0.02379114,-0.98929547
1314362767.86952662,0.14367765,0.02358052,-0.98934357
1314362767.92062473,0.14372807,0.02342433,-0.98933995
1314362767.97163486,0.14350538,0.02355884,-0.98936908
1314362768.02104211,0.14342368,0.02334279,-0.98938605
1314362768.06947732,0.14355252,0.02349420,-0.98936378
1314362768.10951996,0.14329581,0.02366571,-0.98939691
1314362768.16961956,0.14335447,0.02375882,-0.98938618
1314362768.22144771,0.14356838,0.02358492,-0.98935932
1314362768.26960874,0.14339589,0.02345998,-0.98938731
1314362768.32161641,0.14370338,0.02353287,-0.98934096
1314362768.37347722,0.14368595,0.02342896,-0.98934596
1314362768.42062950,0.14338422,0.02334527,-0.98939171
1314362768.46952152,0.14344015,0.02330326,-0.98938460
1314362768.52146435,0.14334706,0.02339894,-0.98939583
1314362768.56868100,0.14313774,0.02331833,-0.98942804
1314362768.62146235,0.14290923,0.02312701,-0.98946556
1314362768.66946459,0.14260607,0.02316819,-0.98950833
1314362768.72383690,0.14247363,0.02306593,-0.98952980
1314362768.76946592,0.14251149,0.02319288,-0.98952138
1314362768.82234168,0.14267045,0.02321821,-0.98949788
1314362768.86949801,0.14280390,0.02321136,-0.98947879
1314362768.92147970,0.14289563,0.02315315,-0.98946691
1314362768.96948171,0.14331037,0.02286256,-0.98941369
1314362769.02150059,0.14348112,0.02281909,-0.98938994
1314362769.06963396,0.14340571,0.02270295,-0.98940355
1314362769.12148428,0.14356673,0.02281165,-0.98937769
1314362769.16948128,0.14377731,0.02261892,-0.98935154
1314362769.22446346,0.14385931,0.02241849,-0.98934418
1314362769.26990461,0.14362059,0.02257873,-0.98937522
1314362769.32152534,0.14341821,0.02287510,-0.98939777
1314362769.36849141,0.14344597,0.02287096,-0.98939384
1314362769.42146683,0.14350581,0.02291020,-0.98938426
1314362769.46890163,0.14350899,0.02282976,-0.98938565
1314362769.52096581,0.14370090,0.02303930,-0.98935294
1314362769.56150007,0.14386235,0.02297041,-0.98933108
1314362769.62186480,0.14381819,0.02285452,-0.98934018
1314362769.66862965,0.14385963,0.02282450,-0.98933485
1314362769.70945954,0.14358220,0.02265859,-0.98937897
1314362769.76959562,0.14340696,0.02258685,-0.98940602
1314362769.82144499,0.14340270,0.02208235,-0.98941803
1314362769.86051559,0.14355227,0.02209044,-0.98939616
1314362769.92054677,0.14367157,0.02200273,-0.98938080
1314362769.97165203,0.14363854,0.02185215,-0.98938893
1314362770.02448773,0.14351582,0.02211829,-0.98940082
1314362770.06851625,0.14333880,0.02197094,-0.98942977
1314362770.12050271,0.14347889,0.02216039,-0.98940524
1314362770.16863561,0.14341971,0.02224803,-0.98941185
1314362770.22157693,0.14354644,0.02224262,-0.98939359
1314362770.26850891,0.14381124,0.02225353,-0.98935489
1314362770.32059598,0.14399191,0.02231146,-0.98932731
1314362770.36884332,0.14400919,0.02237322,-0.98932340
1314362770.41822076,0.14429422,0.02210109,-0.98928799
1314362770.47091317,0.14444163,0.02205494,-0.98926750
1314362770.52550554,0.14469885,0.02198110,-0.98923156
1314362770.56912446,0.14480483,0.02204346,-0.98921466
1314362770.62144971,0.14488677,0.02216654,-0.98919991
1314362770.66950655,0.14488483,0.02192184,-0.98920565
1314362770.72062421,0.14486703,0.02216898,-0.98920275
1314362770.77349663,0.14459586,0.02208391,-0.98924433
1314362770.82164311,0.14474756,0.02192423,-0.98922569
1314362770.86953473,0.14473259,0.02211859,-0.98922356
1314362770.92158031,0.14438783,0.02194156,-0.98927788
1314362770.96960187,0.14437543,0.02194169,-0.98927969
1314362771.02155018,0.14449767,0.02212876,-0.98925767
1314362771.06886387,0.14446238,0.02230816,-0.98925880
1314362771.12158799,0.14433113,0.02243960,-0.98927498
1314362771.16951728,0.14416010,0.02246138,-0.98929942
1314362771.22163796,0.14417056,0.02253414,-0.98929625
1314362771.26961923,0.14423865,0.02251379,-0.98928678
1314362771.31201935,0.14415554,0.02260488,-0.98929682
1314362771.36849141,0.14404428,0.02278729,-0.98930884
1314362771.42395258,0.14409027,0.02293813,-0.98929866
1314362771.46952009,0.14394947,0.02298592,-0.98931805
1314362771.52087522,0.14400124,0.02313915,-0.98930694
1314362771.57026291,0.14400409,0.02299544,-0.98930988
1314362771.62175655,0.14400190,0.02315538,-0.98930647
1314362771.66966796,0.14387475,0.02299727,-0.98932865
1314362771.71348381,0.14393019,0.02288055,-0.98932329
1314362771.76886463,0.14408622,0.02272642,-0.98930414
1314362771.82144523,0.14382684,0.02271838,-0.98934206
1314362771.86853004,0.14392709,0.02281856,-0.98932518
1314362771.92097640,0.14393659,0.02243639,-0.98933254
1314362771.97204542,0.14393356,0.02259999,-0.98932925
1314362772.02069116,0.14407269,0.02241828,-0.98931314
1314362772.07353783,0.14408949,0.02287722,-0.98930018
1314362772.12138128,0.14376362,0.02268653,-0.98935198
1314362772.16860747,0.14368831,0.02250306,-0.98936711
1314362772.22151899,0.14361660,0.02253794,-0.98937673
1314362772.26961493,0.14343462,0.02260787,-0.98940153
1314362772.32050538,0.14347477,0.02256720,-0.98939664
1314362772.36956716,0.14339261,0.02246413,-0.98941090
1314362772.42977810,0.14323895,0.02256249,-0.98943092
1314362772.46859789,0.14327068,0.02248293,-0.98942813
1314362772.52192616,0.14339289,0.02255763,-0.98940873
1314362772.56859088,0.14356166,0.02298227,-0.98937448
1314362772.62145734,0.14367500,0.02302309,-0.98935708
1314362772.66961002,0.14363677,0.02305269,-0.98936194
1314362772.72054887,0.14361116,0.02311207,-0.98936427
1314362772.77560449,0.14359750,0.02324314,-0.98936319
1314362772.82159305,0.14360916,0.02328135,-0.98936060
1314362772.87074471,0.14347564,0.02348008,-0.98937527
1314362772.92156291,0.14339576,0.02350624,-0.98938623
1314362772.96960926,0.14330177,0.02351108,-0.98939973
1314362773.02145147,0.14328311,0.02369869,-0.98939796
1314362773.06952834,0.14322107,0.02356264,-0.98941019
1314362773.12159133,0.14299144,0.02335169,-0.98944841
1314362773.16946864,0.14300402,0.02335293,-0.98944656
1314362773.22172141,0.14295047,0.02307739,-0.98946076
1314362773.27352047,0.14296207,0.02330639,-0.98945372
1314362773.32074189,0.14273386,0.02314571,-0.98949044
1314362773.36949372,0.14281768,0.02337154,-0.98947303
1314362773.42413998,0.14289802,0.02341368,-0.98946044
1314362773.46851063,0.14275202,0.02326603,-0.98948499
1314362773.52159190,0.14287461,0.02308387,-0.98947157
1314362773.56954670,0.14282838,0.02287227,-0.98948316
1314362773.62204528,0.14269949,0.02284654,-0.98950235
1314362773.67248058,0.14296989,0.02298846,-0.98946002
1314362773.70945621,0.14298059,0.02297364,-0.98945882
1314362773.76964450,0.14302382,0.02313193,-0.98944889
1314362773.82444763,0.14288399,0.02296525,-0.98947297
1314362773.86951470,0.14299700,0.02259170,-0.98946525
1314362773.92049074,0.14306154,0.02277001,-0.98945183
1314362773.96948457,0.14292549,0.02266183,-0.98947397
1314362774.02046251,0.14285925,0.02247781,-0.98948774
1314362774.06946588,0.14285474,0.02252011,-0.98948743
1314362774.12146974,0.14267526,0.02266121,-0.98951010
1314362774.16850233,0.14277025,0.02283824,-0.98949233
1314362774.22161055,0.14289561,0.02290380,-0.98947272
1314362774.26874423,0.14284468,0.02288714,-0.98948046
1314362774.32071877,0.14319064,0.02271583,-0.98943440
1314362774.36871052,0.14320411,0.02266007,-0.98943373
1314362774.42068696,0.14332931,0.02250038,-0.98941924
1314362774.46873784,0.14342465,0.02249623,-0.98940552
1314362774.52069879,0.14372063,0.02237340,-0.98936536
1314362774.56847477,0.14363908,0.02207874,-0.98938382
1314362774.62148094,0.14367749,0.02217604,-0.98937607
1314362774.66851449,0.14360662,0.02210785,-0.98938788
1314362774.72168231,0.14339335,0.02219063,-0.98941696
1314362774.77111673,0.14335120,0.02239331,-0.98941850
1314362774.82166624,0.14336065,0.02235145,-0.98941808
1314362774.86967254,0.14317624,0.02237863,-0.98944417
1314362774.92160487,0.14305034,0.02240193,-0.98946185
1314362774.96881175,0.14289785,0.02261294,-0.98947909
1314362775.02151036,0.14288757,0.02266987,-0.98947927
1314362775.06964326,0.14284871,0.02286841,-0.98948031
1314362775.12068295,0.14328298,0.02302031,-0.98941400
1314362775.16946268,0.14333657,0.02307305,-0.98940500
